Stündliche Wetter Aadorf

Heute, 4 März, Donnerstag

Zeit Temperatur Niederschläge Wind Luftdruck Luftfeuchtigkeit
00:00 +5°C° 0 mm 1 m/S 715 mmHg 67%
01:00 +5°C° 0 mm 1 m/S 714 mmHg 67%
02:00 +5°C° 0 mm 1 m/S 714 mmHg 66%
03:00 +5°C° 0 mm 1 m/S 713 mmHg 65%
04:00 +5°C° 0 mm 1 m/S 713 mmHg 65%
05:00 +5°C° 0 mm 1 m/S 713 mmHg 66%
06:00 +4°C° 0 mm 1 m/S 712 mmHg 67%
07:00 +4°C° 0 mm 1 m/S 712 mmHg 68%
08:00 +6°C° 0 mm 1 m/S 712 mmHg 64%
09:00 +8°C° 0 mm 1 m/S 712 mmHg 60%
10:00 +10°C° 0 mm 1 m/S 712 mmHg 56%
11:00 +10°C° 0 mm 2 m/S 712 mmHg 55%
12:00 +12°C° 0 mm 2 m/S 711 mmHg 54%
13:00 +12°C° 0 mm 3 m/S 711 mmHg 53%
14:00 +11°C° 0 mm 3 m/S 711 mmHg 58%
15:00 +12°C° 0 mm 2 m/S 710 mmHg 63%
16:00 +10°C° 0 mm 2 m/S 710 mmHg 68%
17:00 +9°C° 0.4 mm 2 m/S 709 mmHg 76%
18:00 +8°C° 0.4 mm 2 m/S 709 mmHg 83%
19:00 +8°C° 0.4 mm 1 m/S 709 mmHg 91%
20:00 +7°C° 1.1 mm 1 m/S 709 mmHg 92%
21:00 +6°C° 1.1 mm 1 m/S 709 mmHg 93%
22:00 +6°C° 1.1 mm 1 m/S 709 mmHg 94%
23:00 +6°C° 0.3 mm 1 m/S 709 mmHg 94%

Morgen, 5 März, Freitag

Zeit Temperatur Niederschläge Wind Luftdruck Luftfeuchtigkeit
00:00 +6°C° 0.3 mm 1 m/S 709 mmHg 94%
01:00 +6°C° 0.3 mm 1 m/S 709 mmHg 94%
02:00 +5°C° 0.5 mm 1 m/S 709 mmHg 95%
03:00 +5°C° 0.5 mm 1 m/S 709 mmHg 95%
04:00 +5°C° 0.5 mm 1 m/S 709 mmHg 96%
05:00 +5°C° 0.2 mm 1 m/S 709 mmHg 96%
06:00 +4°C° 0.2 mm 0 m/S 709 mmHg 96%
07:00 +4°C° 0.2 mm 0 m/S 709 mmHg 96%
08:00 +4°C° 0.5 mm 0 m/S 710 mmHg 95%
09:00 +5°C° 0.5 mm 1 m/S 710 mmHg 94%
10:00 +6°C° 0.5 mm 1 m/S 710 mmHg 92%
11:00 +5°C° 0.5 mm 1 m/S 710 mmHg 92%
12:00 +5°C° 0.5 mm 1 m/S 710 mmHg 93%
13:00 +5°C° 0.5 mm 1 m/S 710 mmHg 93%
14:00 +4°C° 0.3 mm 2 m/S 710 mmHg 93%
15:00 +3°C° 0.3 mm 2 m/S 710 mmHg 94%
16:00 +2°C° 0.3 mm 3 m/S 710 mmHg 94%
17:00 +2°C° 0.1 mm 3 m/S 711 mmHg 94%
18:00 +1°C° 0.1 mm 3 m/S 711 mmHg 95%
19:00 +1°C° 0.1 mm 3 m/S 712 mmHg 95%
20:00 0°C° 0.1 mm 3 m/S 712 mmHg 93%
21:00 -1°C° 0.1 mm 3 m/S 713 mmHg 91%
22:00 -1°C° 0.1 mm 3 m/S 713 mmHg 88%
23:00 -2°C° 0 mm 3 m/S 714 mmHg 89%

übermorgen, 6 März, Samstag

Zeit Temperatur Niederschläge Wind Luftdruck Luftfeuchtigkeit
00:00 -2°C° 0 mm 3 m/S 714 mmHg 90%
01:00 -2°C° 0 mm 3 m/S 714 mmHg 91%
02:00 -3°C° 0 mm 2 m/S 714 mmHg 90%
03:00 -3°C° 0 mm 2 m/S 714 mmHg 90%
04:00 -4°C° 0 mm 2 m/S 714 mmHg 89%
05:00 -4°C° 0 mm 2 m/S 714 mmHg 90%
06:00 -4°C° 0 mm 2 m/S 714 mmHg 90%
07:00 -4°C° 0 mm 2 m/S 714 mmHg 91%
08:00 -3°C° 0 mm 2 m/S 714 mmHg 87%
09:00 -2°C° 0 mm 2 m/S 715 mmHg 83%
10:00 0°C° 0 mm 3 m/S 715 mmHg 78%
11:00 +1°C° 0 mm 3 m/S 715 mmHg 73%
12:00 +3°C° 0 mm 2 m/S 715 mmHg 68%
13:00 +5°C° 0 mm 2 m/S 715 mmHg 62%
14:00 +5°C° 0 mm 2 m/S 715 mmHg 60%
15:00 +5°C° 0 mm 2 m/S 714 mmHg 59%
16:00 +6°C° 0 mm 2 m/S 714 mmHg 57%
17:00 +4°C° 0 mm 2 m/S 714 mmHg 62%
18:00 +2°C° 0 mm 2 m/S 714 mmHg 68%
19:00 +2°C° 0 mm 1 m/S 714 mmHg 74%
20:00 +1°C° 0 mm 1 m/S 714 mmHg 75%
21:00 0°C° 0 mm 1 m/S 714 mmHg 77%
22:00 -1°C° 0 mm 1 m/S 714 mmHg 78%
23:00 -2°C° 0 mm 0 m/S 714 mmHg 79%

7 März, Sonntag

Zeit Temperatur Niederschläge Wind Luftdruck Luftfeuchtigkeit
00:00 -2°C° 0 mm 0 m/S 714 mmHg 79%
01:00 -2°C° 0 mm 0 m/S 714 mmHg 80%
02:00 -2°C° 0 mm 0 m/S 714 mmHg 80%
03:00 -2°C° 0 mm 0 m/S 713 mmHg 80%
04:00 -2°C° 0 mm 0 m/S 713 mmHg 79%
05:00 -2°C° 0 mm 0 m/S 713 mmHg 80%
06:00 -2°C° 0 mm 0 m/S 713 mmHg 80%
07:00 -2°C° 0 mm 0 m/S 713 mmHg 80%
08:00 0°C° 0 mm 0 m/S 713 mmHg 73%
09:00 +2°C° 0 mm 0 m/S 713 mmHg 65%
10:00 +5°C° 0 mm 0 m/S 713 mmHg 58%
11:00 +7°C° 0 mm 1 m/S 713 mmHg 57%
12:00 +9°C° 0 mm 1 m/S 712 mmHg 56%
13:00 +9°C° 0 mm 2 m/S 712 mmHg 55%
14:00 +9°C° 0 mm 2 m/S 711 mmHg 57%
15:00 +9°C° 0 mm 2 m/S 711 mmHg 59%
16:00 +9°C° 0 mm 2 m/S 710 mmHg 60%
17:00 +8°C° 0 mm 1 m/S 710 mmHg 68%
18:00 +6°C° 0 mm 1 m/S 710 mmHg 77%
19:00 +4°C° 0 mm 1 m/S 710 mmHg 85%
20:00 +4°C° 0.1 mm 1 m/S 710 mmHg 87%
21:00 +3°C° 0.1 mm 1 m/S 710 mmHg 88%
22:00 +3°C° 0.1 mm 1 m/S 710 mmHg 90%
23:00 +2°C° 0.2 mm 0 m/S 710 mmHg 91%

8 März, Montag

Zeit Temperatur Niederschläge Wind Luftdruck Luftfeuchtigkeit
00:00 +1°C° 0.2 mm 0 m/S 710 mmHg 91%
01:00 +1°C° 0.2 mm 0 m/S 709 mmHg 92%
02:00 +1°C° 0.1 mm 0 m/S 709 mmHg 92%
03:00 +1°C° 0.1 mm 0 m/S 709 mmHg 92%
04:00 +1°C° 0.1 mm 0 m/S 709 mmHg 92%
05:00 +1°C° 0.1 mm 0 m/S 709 mmHg 92%
06:00 0°C° 0.1 mm 0 m/S 709 mmHg 91%
07:00 0°C° 0.1 mm 0 m/S 709 mmHg 91%
08:00 +2°C° 0 mm 0 m/S 709 mmHg 86%
09:00 +3°C° 0 mm 0 m/S 709 mmHg 80%
10:00 +4°C° 0 mm 0 m/S 709 mmHg 75%
11:00 +6°C° 0.1 mm 1 m/S 709 mmHg 70%
12:00 +7°C° 0.1 mm 1 m/S 709 mmHg 65%
13:00 +8°C° 0.1 mm 1 m/S 709 mmHg 60%
14:00 +8°C° 0 mm 1 m/S 709 mmHg 60%
15:00 +8°C° 0 mm 1 m/S 709 mmHg 59%
16:00 +7°C° 0 mm 1 m/S 708 mmHg 59%
17:00 +6°C° 0 mm 1 m/S 709 mmHg 66%
18:00 +5°C° 0 mm 1 m/S 709 mmHg 72%
19:00 +3°C° 0 mm 1 m/S 709 mmHg 79%
20:00 +3°C° 0 mm 1 m/S 709 mmHg 80%
21:00 +2°C° 0 mm 1 m/S 709 mmHg 81%
22:00 +1°C° 0 mm 1 m/S 710 mmHg 82%
23:00 +1°C° 0 mm 1 m/S 710 mmHg 81%

9 März, Dienstag

Zeit Temperatur Niederschläge Wind Luftdruck Luftfeuchtigkeit
00:00 0°C° 0 mm 1 m/S 710 mmHg 81%
01:00 -2°C° 0 mm 0 m/S 710 mmHg 81%
02:00 -2°C° 0 mm 0 m/S 709 mmHg 81%
03:00 -2°C° 0 mm 0 m/S 709 mmHg 81%
04:00 -3°C° 0 mm 0 m/S 709 mmHg 81%
05:00 -3°C° 0 mm 0 m/S 710 mmHg 81%
06:00 -3°C° 0 mm 0 m/S 710 mmHg 81%
07:00 -3°C° 0 mm 0 m/S 710 mmHg 81%
08:00 -1°C° 0 mm 0 m/S 710 mmHg 73%
09:00 +2°C° 0 mm 0 m/S 711 mmHg 65%
10:00 +4°C° 0 mm 0 m/S 711 mmHg 56%
11:00 +5°C° 0 mm 0 m/S 711 mmHg 53%
12:00 +7°C° 0 mm 1 m/S 711 mmHg 50%
13:00 +9°C° 0 mm 1 m/S 711 mmHg 47%
14:00 +8°C° 0 mm 1 m/S 711 mmHg 47%
15:00 +8°C° 0 mm 1 m/S 711 mmHg 47%
16:00 +8°C° 0 mm 1 m/S 711 mmHg 47%
17:00 +6°C° 0 mm 1 m/S 711 mmHg 55%
18:00 +4°C° 0 mm 1 m/S 711 mmHg 63%
19:00 +2°C° 0 mm 1 m/S 711 mmHg 70%
20:00 +2°C° 0 mm 1 m/S 712 mmHg 72%
21:00 +1°C° 0 mm 1 m/S 712 mmHg 74%
22:00 +1°C° 0 mm 1 m/S 712 mmHg 76%
23:00 0°C° 0 mm 1 m/S 712 mmHg 77%
Mehr zeigen

Wir brauchen deine Erlaubnis

Meteoprog und unser Service Anbieter werden persönliche Daten aufbewahren, so wie Cookies, Geräte Bezeichnung oder ähnliche Technologien von deinem Gerät und Prozess, so wie Persönliche Daten Inhalte und Werbungen, genauso wie social Media und den Verkehr zu analysieren.

  • Aufbewahrung und/oder Zugang zu deiner Geräte Informationen.

    Cookies, Geräte Bezeichnung oder andere Informationen, können aufbewahrt oder Zugang zu deinem Gerät erhalten, für den Grund, der oben angegeben wird.

  • Personalisierte Werbung und Inhalte, Messungen, Einblick in das Publikum und Produkt Entwicklung.

    Werbungen und Inhalte können personalisiert werden, basierend auf ein Profil. Mehr Daten können besser personalisierte Werbungen und Inhalte hinzufügen. Werbung und Inhalte können gezeigt und gemessen werden. Einblicke über das Publikum, welche die Werbung gesehen haben und den Inhalt, können abgeleitet werden. So wie Daten können genutzt werden, um es zu verbessern oder die Benutzer Erfahrung zu verbessern das System und die Software.

Wenn du “Ich stimme zu” klickst, erlaubst du uns, die Cookies zu benutzen die Geräte Bezeichnung, den Web oder ähnliche Technologien zu benutzen. Deine Settings, können in deinem Gerät bei deinem Browser geändert werden.

Für den bestimmten Zweck, berechtigten Interessen beruhen darauf, mehr als auf den Inhalt. Du kannst mehr darüber in unseren Privaten und Cookie Politik lesen.